sat.trackr.live / text

‹ back to catalog

UITMSAT-2

NORAD 67686 · 1998-067YC

PAYLOAD ACTIVE UNKNOWN

§ Identity

Operator
Country
MALA
Launch date
1998-11-20
Launch site
TYMSC
Launch vehicle
Mass (kg)
RCS (m²)

Purposes: station

External: N2YO · Heavens-Above · Gunter

§ Orbital elements

Epoch: 2026-05-25T00:40:39.757152Z

Period
92.24 min
Inclination
51.6280°
Eccentricity
0.0009892
Mean motion
15.61190741 rev/d
Perigee alt
377.5 km
Apogee alt
390.9 km
Semi-major
6,762.4 km
B*
7.6375e-4
RAAN
49.4172°
Arg perigee
99.7190°
Mean anomaly
260.4921°
Rev number
1,668

§ Raw data

UITMSAT-21 67686U 98067YC  26145.02823793  .00066056  00000+0  76375-3 0  99982 67686  51.6280  49.4172 0009892  99.7190 260.4921 15.61190741 16687

JSON: /api/v1/satellites/67686 · /tle

For live sub-satellite position, see the globe view (requires WebGL).

§ Visibility from observer

Set your observer location to see the next 7 days of passes ≥ 10°. The values pass through the URL so the page stays shareable.

No JS? Fill the form by hand. The geolocation button needs JavaScript.